ROMMA est une association bénévole à but non lucratif. Votre soutien est indispensable : ADHERER à ROMMA ou FAIRE un DON

Lyon - (69, Rhône)

Plaine lyonnaise (169 m)   Longitude: 04° 49' 55" E   Latitude: 45° 43' 50" N Station partenaire n°124
 

Détail journalier du     <<     >>

Température Precipitation Humidité Pression Vent Dir Rafale Dir. rafale Ensol.
Heure (°C) (mm) (%) (hPa) (km/h) (km/h) (min)
01:00 8.709210201N6N0
02:00 8.709110203N10N0
03:00 7.909210202N5N0
04:00 7.909310203N6N0
05:00 7.60.39410192SO5SO0
06:00 7.409410192SO5SO0
07:00 7.709310193SO11SO0
08:00 8.109210193SO11SO0
09:00 9.609110192N6N10
10:00 11.008310193N8N20
11:00 13.707610184N10N20
12:00 16.906910185SE13N50
13:00 18.905410175SE14S60
14:00 20.604610166S18SO60
15:00 22.104510156SE16SO60
16:00 23.204110159S19SE60
17:00 23.604210147SO23SE60
18:00 23.304310148SE19SE60
19:00 22.304710139SO27SO10
20:00 21.704910147S21SO0
21:00 21.104810149S19SO0
22:00 20.404810149N24N0
23:00 20.305010146N21N0
minuit 19.805310146N21N0

Graphique du 08-10-2019

 

Serveur OMMA